Weather Roundup
Issued by NWS Chicago, IL

Home | Current Version | Previous Version | Text Only | Print | Product List | Glossary Off
Versions: 1 2 3 4 5 6 7 8 9 10 11 12 13 14 15 16 17 18 19 20 21 22 23 24 25 26 27 28 29 30 31 32 33 34 35 36 37 38 39 40 41 42 43 44 45 46 47 48 49 50

000
NZUS59 KLOT 271500
HRRLOT

CHICAGO AREA WEATHER ROUNDUP
NATIONAL WEATHER SERVICE CHICAGO/ROMEOVILLE IL
900 AM CST FRI FEB 27 2015

NOTE: "FAIR" INDICATES FEW OR NO CLOUDS BELOW 12,000 FEET WITH NO
SIGNIFICANT WEATHER AND/OR OBSTRUCTIONS TO VISIBILITY.

* THESE STATIONS ARE NOT UNDER NWS QUALITY CONTROL. THEY ALSO MAY NOT
  REPORT WEATHER SUCH AS PRECIPITATION OR FOG.

ILZ005-006-012>014-019>023-271600-
NORTHEAST ILLINOIS

CITY           SKY/WX    TMP DP  RH WIND       PRES   REMARKS
OHARE          SUNNY      5  -6  60 W7        30.57R WCI  -7
MIDWAY         MOSUNNY    9  -3  58 W5        30.59R WCI   1
AURORA         SUNNY     -3 -11  68 NW9       30.59R WCI -19
WAUKEGAN         N/A      5  -8  55 W8        30.55R WCI  -8
DUPAGE AIRPORT SUNNY      4  -7  60 W7        30.56R WCI  -8
WHEELING       SUNNY      7  -7  52 NW7       30.58R WCI  -5
NORTHERLY IS     N/A     11  -2  56 SW5         N/A  WCI   3
$$

WIZ051-052-058>065-066-070>072-271600-
SOUTHEAST WISCONSIN

CITY           SKY/WX    TMP DP  RH WIND       PRES   REMARKS
MILWAUKEE      SUNNY      8  -7  50 NW8       30.55R WCI  -4
KENOSHA*       SUNNY      2  -8  63 W8        30.55R WCI -12
RACINE*        SUNNY      4  -8  57 W7        30.57R WCI  -8
$$

INZ001>003-010>013-019-020-271600-
NORTHWEST INDIANA

CITY           SKY/WX    TMP DP  RH WIND       PRES   REMARKS
GARY*          SUNNY     10  -6  48 W7        30.59R WCI   0
MICHIGAN CITY* NOT AVBL
RENSSELAER*    NOT AVBL
$$

LMZ740>746-271600-
SOUTHERN LAKE MICHIGAN

STATION/POSITION TIME  SKY/WX   TEMP WIND        PRES    VSBY
                                AIR  DIR/SP/G
                 (UTC)          (F)  (DEG/KT/KT) (MB)    (MI)
HARRISON CRIB    1400             7  290/  9/ 11   N/A
BURNHAM HARBOR   1500            12  270/  4/ 10   N/A
CALUMET HARBOR   1400                260/  3/  6 1033.7R
BURNS HARBOR     NOT AVBL
MICHIGAN CITY    1400             5  170/  7/  8   N/A
$$

ABBREVIATIONS USED IN REMARKS
   TC - TEMPERATURE IN CELSIUS
  WCI - WIND CHILL INDEX
   HX - HEAT INDEX
  VSB - VISIBILITY
$$


USA.gov is the U.S. government's official web portal to all federal, state and local government web resources and services.